This is the latest recevied weather packets stored in our database for station/object IN3ISU-13. If no packets are shown the sender has not sent any weather packets the latest 10 day(s).
| Time | Temp. | Humidity | Pressure | Rain* | Wind** | Luminosity | Snow |
|---|---|---|---|---|---|---|---|
| 1788253202 | 23.33° C | 64% | 1020 hPa | 0 mm | - | - | - |
| 1788251403 | 22.78° C | 65% | 1020 hPa | 0 mm | - | - | - |
| 1788249602 | 21.67° C | 67% | 1021 hPa | 0 mm | - | - | - |
| 1788247802 | 20.56° C | 64% | 1021 hPa | 0 mm | - | - | - |
| 1788246002 | 20.56° C | 59% | 1021 hPa | 0 mm | - | - | - |
| 1788244203 | 20° C | 60% | 1021 hPa | 0 mm | - | - | - |
| 1788242402 | 19.44° C | 57% | 1021 hPa | 0 mm | - | - | - |
| 1788240602 | 18.89° C | 45% | 1021 hPa | 0 mm | - | - | - |
| 1788238803 | 18.89° C | 44% | 1020 hPa | 0 mm | - | - | - |
| 1788210003 | 23.33° C | 79% | 1017 hPa | 0 mm | - | - | - |
| 1788204602 | 23.33° C | 76% | 1017 hPa | 0 mm | - | - | - |
| 1788202802 | 20.56° C | 71% | 1016 hPa | 0 mm | - | - | - |
| 1788201002 | 20.56° C | 71% | 1016 hPa | 0 mm | - | - | - |
| 1788197402 | 26.67° C | 70% | 1015 hPa | 0 mm | - | - | - |
| 1788195602 | 26.67° C | 69% | 1014 hPa | 0 mm | - | - | - |
| 1788193802 | 29.44° C | 53% | 1014 hPa | 0 mm | - | - | - |
| 1788192002 | 29.44° C | 53% | 1014 hPa | 0 mm | - | - | - |
| 1788190202 | 29.44° C | 59% | 1013 hPa | 0 mm | - | - | - |
| 1788186602 | 28.33° C | 69% | 1014 hPa | 0 mm | - | - | - |
| 1788184802 | 28.33° C | 69% | 1014 hPa | 0 mm | - | - | - |
| 1788179402 | 31.67° C | 33% | 1014 hPa | 0 mm | - | - | - |
| 1788177602 | 30.56° C | 38% | 1014 hPa | 0 mm | - | - | - |
| 1788175802 | 30° C | 41% | 1014 hPa | 0 mm | - | - | - |
| 1788174002 | 28.89° C | 49% | 1015 hPa | 0 mm | - | - | - |
| 1788172202 | 26.67° C | 57% | 1015 hPa | 0 mm | - | - | - |
* Rain latest hour (hover to see other rain measurements)
** Current wind speed in m/s (hover to see current wind gust speed)